STARLINK-4100, 53144

Orbit data source: Space-Track

STARLINK-4100, 53144 is a payload satellite owned by SpaceX/Seattle (US) in LEO that was launched on Sun, 17 Jul 2022 UTC via an FALCON 9 launch vehicle from the Air Force Eastern Test Range (AFETR). Payload-class satellites include a variety of spacecraft equipped with specific instruments for various scientific and technological missions. These include communications satellites like Starlink; space stations such as the ISS; scientific satellites like the Hubble; Earth observation satellites from companies like Planet Labs, Umbra, and HawkEye 360; GPS; miniature CubeSats for education and research; and military/defense satellites.

Loading next visibility...
Identifier
53144, 2022-083N
Orbit
LEO
Country
Flag of USUS
Related business
Manufacturer
SpaceX/Seattle
Mission
Operational Commercial Communications
Bus & Motor
STARLINK, Unknown motor
Mass
297 kg wet, ~275 kg dry
Launch date (UTC)
2022-07-17 (4 years ago)
Launch vehicle
FALCON 9
Launch site
Air Force Eastern Test Range (AFETR)
Object type
Payload
Rocket body
Debris
Shape & HBR
Box + 1 Pan, 10.1 m
Radar Cross Section
13.562 m², Large (>1 m²)

Expand to show TLE details & history
Last TLE update: 2 days ago

TLE from 2 days ago
0 STARLINK-4100
1 53144U 22083N   26171.41668980  .00006349  00000-0  36523-3 0  9995
2 53144  53.1599  72.7936 0001156  99.4734  73.1322 15.13664383  5726
Epoch: 2026-06-20T10:00Z
TLE epoch observation values (Epoch: 2026-06-20T10:00:01.998Z)
Latitude
5.85857°
Longitude
-170.23095°
Altitude
525.128 km
Speed
7.602 km/s
True Right ascension
16h 33m 38s
True Declination
5° 49' 21"
Sunlit
Object was in full shadow at epoch
Visualization orbit readout
Latitude
Unknown
Longitude
Unknown
Altitude
Unknown
Speed
Unknown
Apparent Right ascension
Unknown
Apparent Declination
Unknown
Sunlit
N/A
Visualization observer readout
Local Sidereal Time
21:28:53
Azimuth
Unknown
Elevation
Unknown
Doppler factor
Unknown
Orbital elements
Apogee altitude
526.089 km
Perigee altitude
524.493 km
Semi-major axis
6,903.428 km
Eccentricity
0.00012
Inclination
53.1599°
RAAN
72.7936°
Arg. of periapsis
99.4734°
True anomaly
73.14488°
Mean anomaly
73.1322°
Eccentric anomaly
73.13854°
Mean motion
3.78396 °/min
Orbital period
95.14 mins
BSTAR
0.00036523
Loading maneuver chart data...
Computing Atmospheric mass density...
Loading historical data...
Loading historical data...
Loading historical data...
Loading historical data...
Loading historical data...
Loading historical data...
Loading historical data...

Documentation

Showing up to 5 results
|